Lexington Weather

Lexington, Massachusetts, USA

46°F
10/26/2020 6:29am 
  • Lexington Conditions: Light rain, Overcast
  • Temperature: 46.2°F / 7.9°CWarmer 0.5°F than last hour.
  • Dew Point: 42.6°FIncreased 2.1°Fsince last hour.
  • Relative Humidity: 87%Increased 5.0% since last hour.
  • Wind: Calm, 10-min avg: Calm, gust: 2 mph
  • Barometer: 30.27 in Steady
  • Visibility: 10 miles
  • Rain Today: 0.00 in
  •   

Regional Weather Roundup
for Boston / Norton, MA

        
000
ASUS41 KBOX 250004
RWRBOX

REGIONAL WEATHER ROUNDUP
NATIONAL WEATHER SERVICE BOSTON/NORTON MA
800 PM EDT SAT OCT 24 2020

NOTE:  "FAIR" INDICATES FEW OR NO CLOUDS BELOW 12,000 FEET WITH NO 
SIGNIFICANT WEATHER AND/OR OBSTRUCTIONS TO VISIBILITY.

MAZALL-250100-
EASTERN MASSACHUSETTS
  
CITY           SKY/WX    TMP DP  RH WIND       PRES   REMARKS
BOSTON         MOCLDY    57  42  57 NW17      29.92R                  
6HR MIN TEMP:  57; 6HR MAX TEMP:  69;                                

BEVERLY        CLOUDY    56  43  61 NW15      29.92R                  
LAWRENCE       CLEAR     53  40  61 NW10G17   29.96R                  
BEDFORD        CLEAR     54  44  69 N12       29.93R                  
BLUE HILL        N/A     55  45  68 NW15G25   29.91R                  
NORWOOD        CLOUDY    59  45  59 N10G16    29.92R                  
MARSHFIELD     CLOUDY    61  52  72 NW9G16    29.89R                  
PLYMOUTH       CLOUDY    63  59  87 N5        29.88R                  
TAUNTON        CLOUDY    66  57  72 NW6       29.88R                  
NEW BEDFORD    MOCLDY    63  61  93 W6        29.88R                  
$$

MAZALL-250100-
CAPE COD AND THE ISLANDS
  
CITY           SKY/WX    TMP DP  RH WIND       PRES   REMARKS
FALMOUTH       MOCLDY    61  61 100 W8        29.88R                  
HYANNIS        CLOUDY    63  61  93 W6        29.86R                  
CHATHAM        CLOUDY    63  60  90 SW5       29.88S                  
PROVINCETOWN   CLOUDY    59  54  83 N16       29.89R                  
NANTUCKET      CLOUDY   N/A N/A N/A W14       29.88S                  
MARTHAS VNYRD  PTCLDY    62  60  93 W6        29.89R                  
$$
 
MAZALL-250100-
CENTRAL AND WESTERN MASSACHUSETTS
  
CITY           SKY/WX    TMP DP  RH WIND       PRES   REMARKS
WORCESTER      PTCLDY    53  43  68 NW10      29.95R                  
6HR MIN TEMP:  53; 6HR MAX TEMP:  64; 6HR PCP: TRACE;                

FITCHBURG      CLEAR     53  43  68 N10       29.96R                  
ORANGE         CLEAR     52  39  61 N14G24    29.99R                  
SPRINGFIELD    NOT AVBL                                               
WESTFIELD      CLEAR     52  41  66 NW15      29.99R                  
NORTH ADAMS    CLOUDY    49  39  68 W10G20    30.03R                  
PITTSFIELD     MOCLDY    45  37  73 NW13G22   30.03R                  
$$
 
RIZALL-250100-
RHODE ISLAND
  
CITY           SKY/WX    TMP DP  RH WIND       PRES   REMARKS
PROVIDENCE     PTCLDY    62  55  77 W7        29.91R                  
6HR MIN TEMP:  62; 6HR MAX TEMP:  67;                                

NEWPORT        CLOUDY    62  57  83 W6        29.90R                  
BLOCK ISLAND   MOCLDY    60  54  80 W7        29.93R                  
SMITHFIELD     MOCLDY    58  52  80 NW8       29.92R                  
WESTERLY       CLOUDY    60  50  69 W6        29.93R                  
$$
 
CTZALL-250100-
CONNECTICUT
  
CITY           SKY/WX    TMP DP  RH WIND       PRES   REMARKS
BRADLEY INTL   PTCLDY    53  41  63 NW13      29.98R                  
6HR MIN TEMP:  53; 6HR MAX TEMP:  67;                                

HARTFORD       CLEAR     56  41  57 NW9       29.98R                  
BRIDGEPORT     PTCLDY    58  42  55 N9        29.98R                  
DANBURY        PTCLDY    52  39  61 N9        30.00R                  
GROTON         CLOUDY    60  49  66 N10G18    29.93R                  
NEW HAVEN      CLEAR     58  43  57 NW10G21   29.96R                  
CHESTER        FAIR      55  45  67 NW9G15    29.95R                  
MERIDEN        CLEAR     54  41  61 N10       29.98R                  
WILLIMANTIC    CLEAR     56  46  69 NW5       29.96R                  
OXFORD         CLEAR     51  42  71 NW12      29.99R                  
$$

MEZ002-015-021-024-NHZ003-005-008-011-012-014-VTZ005-008-250100-
NORTHERN NEW ENGLAND
  
CITY           SKY/WX    TMP DP  RH WIND       PRES   REMARKS
PORTLAND ME    MOCLDY    51  40  65 N20       29.93R                  
6HR MIN TEMP:  51; 6HR MAX TEMP:  63; 6HR PCP: TRACE;                

BANGOR ME      PTCLDY    46  36  68 NW14      29.93R                  
CONCORD NH     CLEAR     46  34  62 NW13      29.99R                  
MANCHESTER NH  CLEAR     51  37  58 N17G23    29.95R                  
NASHUA NH      CLEAR     51  37  58 NW14G21   29.97R                  
PORTSMOUTH NH  NOT AVBL                                               
JAFFREY NH     CLEAR     48  38  68 NW6       29.98R                  
KEENE NH       CLOUDY    48  36  63 N22       30.01R                  
BURLINGTON VT  CLOUDY    46  30  53 NW14      30.10R                  
MT. WASHINGTON NOT AVBL                                               
$$

NYZ052-076-250100-
EASTERN NEW YORK
  
CITY           SKY/WX    TMP DP  RH WIND       PRES   REMARKS
ALBANY         MOCLDY    45  35  68 W14G23    30.09R                  
6HR MIN TEMP:  45; 6HR MAX TEMP:  55;                                

NEW YORK CITY  MOCLDY    60  43  53 NW20      29.98R                  
6HR MIN TEMP:  60; 6HR MAX TEMP:  70;                                

$$
 
ANZALL-250100-
MARINE OBSERVATIONS
  
STATION/POSITION TIME  TEMP    WIND        PRES    VSBY  WAVE
                       AIR SEA DIR/SP/G                  HT/PER
                 (UTC) (F)     (DEG/KT/KT) (MB)    (MI)  (FT/S)
BOSTON BUOY      2350   58 59  330/ 19/ 23 1011.0R         5/11
BUZZARDS BAY     2300          250/ 13/ 14 1012.5R
NANTUCKET SOUND  2350      62  240/  8/  8   N/A           2/ 3
MASS BAY-STELLWA 2304   59 58  330/ 19/ 23 1010.7R  1 7/8  6/11
ISLE OF SHOALS   2300   57     300/ 20/ 22 1011.1R
S OF BLOCK IS    2326      63                N/A           5/13
$$

......................KEY.........................
  SKY/WX - SKY CONDITION/PRESENT WEATHER
  TMP    - TEMPERATURE IN FAHRENHEIT
  DWPT   - DEWPOINT IN FAHRENHEIT
  RH     - RELATIVE HUMIDITY IN PERCENT
  WIND   - DIRECTION AND SPEED IN MPH
  PRES   - MEAN SEA LEVEL PRESSURE IN INCHES OF HG
  WCI    - WIND CHILL INDEX
  VSB    - VISIBILITY IN MILES
  HX     - HEAT INDEX
  TC     - TEMPERATURE IN CELSIUS
  VRB    - VARIABLE WIND DIRECTION
  N/A    - NOT AVAILABLE
  
      

Other recent Regional Weather Roundups

Mon Oct 26, 6:04am

Mon Oct 26, 5:04am

Mon Oct 26, 4:04am

Mon Oct 26, 3:04am

Mon Oct 26, 2:04am

Mon Oct 26, 1:04am

Mon Oct 26, 12:04am

Sun Oct 25, 11:05pm

Sun Oct 25, 10:04pm

Sun Oct 25, 9:04pm

Sun Oct 25, 8:04pm

Sun Oct 25, 7:04pm

Sun Oct 25, 6:04pm

Sun Oct 25, 5:04pm

Sun Oct 25, 4:05pm

Sun Oct 25, 3:04pm

Sun Oct 25, 2:04pm

Sun Oct 25, 1:04pm

Sun Oct 25, 12:04pm

Sun Oct 25, 11:04am

Sun Oct 25, 10:04am

Sun Oct 25, 9:04am

Sun Oct 25, 8:04am

Sun Oct 25, 7:04am

Sun Oct 25, 6:04am

Sun Oct 25, 5:04am

Sun Oct 25, 4:04am

Sun Oct 25, 3:04am

Sun Oct 25, 2:04am

Sun Oct 25, 1:05am

Sun Oct 25, 12:04am

Sat Oct 24, 11:04pm

Sat Oct 24, 10:04pm

Sat Oct 24, 9:04pm

Sat Oct 24, 7:04pm

Sat Oct 24, 6:04pm

Sat Oct 24, 5:05pm

Sat Oct 24, 4:04pm

Sat Oct 24, 3:04pm

Sat Oct 24, 2:04pm

Sat Oct 24, 1:05pm

Sat Oct 24, 12:04pm

Sat Oct 24, 11:05am

Sat Oct 24, 10:05am

Sat Oct 24, 9:04am

Sat Oct 24, 8:04am

Sat Oct 24, 7:04am

Sat Oct 24, 6:04am

Sat Oct 24, 5:04am

Sat Oct 24, 4:04am

Sat Oct 24, 3:04am

Sat Oct 24, 2:04am

Sat Oct 24, 1:05am

Sat Oct 24, 12:04am

Fri Oct 23, 11:04pm

Fri Oct 23, 10:04pm

Fri Oct 23, 9:04pm

Fri Oct 23, 8:05pm

Fri Oct 23, 7:04pm

Fri Oct 23, 6:04pm

Fri Oct 23, 5:05pm

Fri Oct 23, 4:04pm

Fri Oct 23, 3:04pm

Fri Oct 23, 2:05pm

Fri Oct 23, 1:04pm

Fri Oct 23, 12:04pm

Fri Oct 23, 11:04am

Fri Oct 23, 10:04am

Fri Oct 23, 9:04am

Fri Oct 23, 8:04am

Fri Oct 23, 7:04am

Fri Oct 23, 6:04am

Fri Oct 23, 5:04am

Fri Oct 23, 4:04am

Fri Oct 23, 3:04am

Fri Oct 23, 2:04am

Fri Oct 23, 1:04am

Fri Oct 23, 12:04am

Thu Oct 22, 11:04pm

Thu Oct 22, 10:04pm

Thu Oct 22, 9:05pm

Thu Oct 22, 8:04pm

Thu Oct 22, 7:05pm

Thu Oct 22, 6:04pm

Thu Oct 22, 5:04pm

Thu Oct 22, 4:05pm

Thu Oct 22, 3:04pm

Thu Oct 22, 2:05pm

Thu Oct 22, 1:04pm

Thu Oct 22, 12:04pm

Thu Oct 22, 11:04am

Thu Oct 22, 10:05am

Thu Oct 22, 9:04am

Thu Oct 22, 8:05am

Thu Oct 22, 7:04am

Thu Oct 22, 6:04am

Thu Oct 22, 5:04am

Thu Oct 22, 4:04am

Thu Oct 22, 3:04am

Thu Oct 22, 2:04am

Thu Oct 22, 1:04am

Thu Oct 22, 12:04am

Wed Oct 21, 11:05pm

Wed Oct 21, 10:04pm

Wed Oct 21, 9:04pm

Wed Oct 21, 8:04pm

Wed Oct 21, 7:04pm

Wed Oct 21, 6:04pm

Wed Oct 21, 5:05pm

Wed Oct 21, 4:04pm

Wed Oct 21, 3:04pm

Wed Oct 21, 2:05pm

Wed Oct 21, 1:04pm

Wed Oct 21, 12:04pm

Wed Oct 21, 11:04am

Wed Oct 21, 10:04am

Wed Oct 21, 9:04am

Wed Oct 21, 8:04am

Wed Oct 21, 7:04am

Wed Oct 21, 6:04am

Wed Oct 21, 5:04am

Wed Oct 21, 4:04am

Wed Oct 21, 3:04am

Wed Oct 21, 2:04am

Wed Oct 21, 1:04am

Wed Oct 21, 12:04am

Tue Oct 20, 11:05pm

Tue Oct 20, 10:04pm

Tue Oct 20, 9:04pm

Tue Oct 20, 8:05pm

Tue Oct 20, 7:04pm

Tue Oct 20, 6:04pm

Tue Oct 20, 5:05pm

Tue Oct 20, 4:04pm

Tue Oct 20, 3:05pm

Tue Oct 20, 2:07pm

Tue Oct 20, 1:04pm

Tue Oct 20, 12:04pm

Tue Oct 20, 11:04am

Tue Oct 20, 10:05am

Tue Oct 20, 9:04am

Tue Oct 20, 8:04am

Tue Oct 20, 7:04am

Tue Oct 20, 6:04am

Tue Oct 20, 5:04am

Tue Oct 20, 4:04am

Tue Oct 20, 3:04am

Tue Oct 20, 2:04am

Tue Oct 20, 1:04am

Tue Oct 20, 12:04am

Mon Oct 19, 11:04pm

Mon Oct 19, 10:04pm

Mon Oct 19, 9:04pm

Mon Oct 19, 8:04pm

Mon Oct 19, 7:04pm

Mon Oct 19, 6:04pm

Mon Oct 19, 5:04pm

Mon Oct 19, 4:04pm

Mon Oct 19, 3:04pm

Mon Oct 19, 2:04pm

Mon Oct 19, 1:05pm

Mon Oct 19, 12:04pm

Mon Oct 19, 11:04am

Mon Oct 19, 10:04am

Mon Oct 19, 9:04am

Mon Oct 19, 8:04am

Mon Oct 19, 7:04am

Mon Oct 19, 6:04am

Mon Oct 19, 5:04am

Meta data:

ID: df8ee416-c7a0-433e-a357-ea2ad38bdbbe
Link: https://api.weather.gov/products/df8ee416-c7a0-433e-a357-ea2ad38bdbbe